Change the Weather History Date:

Tuesday, January 8, 2013

  Actual Average (KABI) Record (KABI)
Temperature  
Mean Temperature 46 °F 44 °F  
Max Temperature 50 °F 56 °F 88 °F (1969)
Min Temperature 41 °F 33 °F -3 °F (1886)
Degree Days  
Heating Degree Days 20 21  
Month to date heating degree days 168  
Since 1 July heating degree days 1213  
Cooling Degree Days 0 0  
Month to date cooling degree days 0  
Year to date cooling degree days 0  
Moisture  
Dew Point 40 °F    
Average Humidity 81    
Maximum Humidity 100    
Minimum Humidity 61    
Precipitation  
Precipitation 0.09 in 0.03 in 0.97 in (1981)
Month to date precipitation 0.24  
Year to date precipitation 0.24  
Sea Level Pressure  
Sea Level Pressure 30.03 in    
Wind  
Wind Speed 6 mph (ESE)    
Max Wind Speed 13 mph    
Max Gust Speed 17 mph    
Visibility 8 miles    
Events Rain    
T = Trace of Precipitation, MM = Missing Value Source: NWS Daily Summary

Daily Weather History Graph

Daily Weather History Graph

Search for Another Location

Airport or City:

Trip Planner

Search our weather history database for the weather conditions in past years. The results will help you decide how hot, cold, wet, or windy it might be!

Date:

Astronomy

Jan. 08, 2013 Rise Set
Actual Time 7:38 AM CST 5:46 PM CST
Civil Twilight 7:11 AM CST 6:13 PM CST
Nautical Twilight 6:41 AM CST 6:43 PM CST
Astronomical Twilight 6:11 AM CST 7:13 PM CST
Moon 4:14 AM CST (1/8) 2:49 PM CST (1/8)
Length of Visible Light 11h 01m
Length of Day
10h 07m
Waning Crescent, 13% of the Moon is Illuminated
Jan 8
Waning Crescent
Jan 11
New
Jan 18
First Quarter
Jan 26
Full
Feb 3
Last Quarter

Hourly Weather History & Observations

Time (CST) Temp. Windchill Dew Point Humidity Pressure Visibility Wind Dir Wind Speed Gust Speed Precip Events Conditions
12:15 AM 44.6 °F 42.2 °F 32.0 °F 61% 30.07 in 10.0 mi SSE 4.6 mph - N/A   Clear
12:55 AM 44.6 °F 41.4 °F 32.0 °F 61% 30.06 in 10.0 mi SSE 5.8 mph - N/A   Mostly Cloudy
1:15 AM 42.8 °F 39.3 °F 32.0 °F 66% 30.05 in 10.0 mi SSE 5.8 mph - N/A   Scattered Clouds
1:35 AM 42.8 °F 38.6 °F 32.0 °F 66% 30.06 in 10.0 mi SSE 6.9 mph - N/A   Scattered Clouds
1:55 AM 41.0 °F 38.0 °F 32.0 °F 70% 30.05 in 10.0 mi SSE 4.6 mph - N/A   Clear
2:15 AM 42.8 °F 41.1 °F 32.0 °F 66% 30.05 in 10.0 mi SE 3.5 mph - N/A   Mostly Cloudy
2:35 AM 42.8 °F 39.3 °F 32.0 °F 66% 30.05 in 10.0 mi SSE 5.8 mph - N/A   Overcast
2:55 AM 42.8 °F 38.0 °F 32.0 °F 66% 30.04 in 10.0 mi SE 8.1 mph - N/A   Overcast
3:15 AM 44.6 °F 40.2 °F 32.0 °F 61% 30.04 in 10.0 mi SSE 8.1 mph - N/A   Overcast
3:35 AM 44.6 °F 40.2 °F 32.0 °F 61% 30.04 in 10.0 mi SSE 8.1 mph - N/A   Overcast
3:55 AM 44.6 °F 40.7 °F 32.0 °F 61% 30.03 in 10.0 mi SE 6.9 mph - N/A   Overcast
4:15 AM 44.6 °F 41.4 °F 32.0 °F 61% 30.03 in 10.0 mi SSE 5.8 mph - N/A   Overcast
4:35 AM 46.4 °F 41.9 °F 33.8 °F 62% 30.03 in 10.0 mi SSE 9.2 mph - N/A   Overcast
4:55 AM 44.6 °F 39.7 °F 33.8 °F 66% 30.01 in 10.0 mi SE 9.2 mph - N/A   Overcast
5:15 AM 44.6 °F 40.2 °F 33.8 °F 66% 30.00 in 10.0 mi SE 8.1 mph - N/A   Overcast
5:35 AM 46.4 °F 42.9 °F 33.8 °F 62% 30.01 in 10.0 mi SE 6.9 mph - N/A   Overcast
5:55 AM 46.4 °F 42.9 °F 35.6 °F 66% 30.01 in 10.0 mi ESE 6.9 mph - N/A   Overcast
6:15 AM 46.4 °F 43.5 °F 35.6 °F 66% 30.01 in 10.0 mi East 5.8 mph - N/A   Overcast
6:35 AM 46.4 °F 43.5 °F 35.6 °F 66% 30.02 in 10.0 mi ESE 5.8 mph - N/A   Overcast
6:55 AM 46.4 °F 45.2 °F 35.6 °F 66% 30.02 in 10.0 mi East 3.5 mph - N/A   Overcast
7:15 AM 46.4 °F 43.5 °F 35.6 °F 66% 30.03 in 10.0 mi ESE 5.8 mph - N/A   Overcast
7:35 AM 46.4 °F - 35.6 °F 66% 30.03 in 10.0 mi Calm Calm - N/A   Overcast
7:55 AM 46.4 °F 43.5 °F 37.4 °F 71% 30.03 in 10.0 mi ESE 5.8 mph - N/A   Overcast
8:15 AM 44.6 °F 43.1 °F 37.4 °F 76% 30.05 in 10.0 mi SE 3.5 mph - N/A   Overcast
9:15 AM 44.6 °F 42.2 °F 42.8 °F 93% 30.05 in 3.0 mi ESE 4.6 mph - N/A Rain Light Rain
9:35 AM 44.6 °F 42.2 °F 42.8 °F 93% 30.06 in 4.0 mi East 4.6 mph - N/A Rain Rain
10:15 AM 44.6 °F 40.7 °F 44.6 °F 100% 30.07 in 2.0 mi ESE 6.9 mph - N/A Rain Rain
11:15 AM 44.6 °F 43.1 °F 44.6 °F 100% 30.05 in 2.0 mi NE 3.5 mph - 0.01 in   Drizzle
12:15 PM 46.4 °F 45.2 °F 46.4 °F 100% 30.03 in 1.8 mi ENE 3.5 mph - 0.02 in Rain Heavy Rain
12:35 PM 46.4 °F 43.5 °F 46.4 °F 100% 30.00 in 3.0 mi ENE 5.8 mph - 0.04 in Rain Rain
2:15 PM 50.0 °F - 48.2 °F 94% 29.96 in 4.0 mi NE 4.6 mph - 0.01 in Rain Light Rain
2:35 PM 50.0 °F - 48.2 °F 94% 29.96 in 4.0 mi NE 6.9 mph - 0.01 in   Overcast
2:55 PM 50.0 °F - 48.2 °F 94% 29.96 in 2.5 mi NE 3.5 mph - 0.01 in   Drizzle
4:15 PM 50.0 °F - 50.0 °F 100% 29.96 in 10.0 mi ENE 8.1 mph - N/A   Overcast
4:55 PM 50.0 °F - 50.0 °F 100% 29.96 in 10.0 mi NE 5.8 mph 9.2 mph N/A   Overcast
5:35 PM 50.0 °F - 50.0 °F 100% 29.98 in 10.0 mi ENE 10.4 mph - N/A   Overcast
5:55 PM 50.0 °F - 50.0 °F 100% 29.99 in 10.0 mi ENE 5.8 mph - N/A   Overcast
6:15 PM 50.0 °F - 50.0 °F 100% 29.98 in 5.0 mi ENE 11.5 mph - N/A   Light Drizzle
6:55 PM 50.0 °F - 50.0 °F 100% 29.98 in 5.0 mi NE 12.7 mph 17.3 mph N/A   Light Drizzle
7:15 PM 50.0 °F - 50.0 °F 100% 30.01 in 7.0 mi ENE 6.9 mph 16.1 mph N/A   Overcast
8:15 PM 50.0 °F - 50.0 °F 100% 30.04 in 10.0 mi ENE 4.6 mph - N/A   Overcast
9:55 PM 50.0 °F - 48.2 °F 94% 30.06 in 0.5 mi NE 10.4 mph - N/A   Drizzle
10:15 PM 48.2 °F - 48.2 °F 100% 30.06 in 0.5 mi NE 12.7 mph 16.1 mph N/A   Light Drizzle
11:35 PM 48.2 °F - 48.2 °F 100% 30.09 in 4.0 mi NE 6.9 mph - 0.01 in Rain Rain
11:55 PM 48.2 °F - 48.2 °F 100% 30.10 in 7.0 mi ENE 5.8 mph - 0.03 in   Drizzle